Time,TemperatureF,DewpointF,PressureIn,WindDirection,WindDirectionDegrees,WindSpeedMPH,WindSpeedGustMPH,Humidity,HourlyPrecipIn,Conditions,Clouds,dailyrainin,SoftwareType,DateUTC
2013-01-15 00:00:00,24.5,19.8,29.94,ESE,109,9.0,11.0,82,0.00,,,0.00,Wunderground v.1.15,2013-01-15 09:00:00,
2013-01-15 00:06:00,24.4,19.7,29.94,East,88,9.0,13.0,82,0.00,,,0.00,Wunderground v.1.15,2013-01-15 09:06:00,
2013-01-15 00:12:00,24.4,20.0,29.94,ESE,115,8.0,10.0,83,0.00,,,0.00,Wunderground v.1.15,2013-01-15 09:12:00,
2013-01-15 00:18:00,24.4,20.0,29.95,ESE,110,8.0,12.0,83,0.00,,,0.00,Wunderground v.1.15,2013-01-15 09:18:00,
2013-01-15 00:23:00,24.4,19.7,29.95,East,88,9.0,10.0,82,0.00,,,0.00,Wunderground v.1.15,2013-01-15 09:23:00,
2013-01-15 00:29:00,24.4,19.7,29.95,SE,134,9.0,15.0,82,0.00,,,0.00,Wunderground v.1.15,2013-01-15 09:29:00,
2013-01-15 00:35:00,24.5,19.8,29.95,East,85,8.0,10.0,82,0.00,,,0.00,Wunderground v.1.15,2013-01-15 09:35:00,
2013-01-15 00:41:00,24.6,19.6,29.96,East,83,8.0,10.0,81,0.00,,,0.00,Wunderground v.1.15,2013-01-15 09:41:00,
2013-01-15 00:46:00,24.7,19.7,29.96,NE,49,9.0,15.0,81,0.00,,,0.00,Wunderground v.1.15,2013-01-15 09:46:00,
2013-01-15 00:52:00,24.7,20.0,29.97,East,86,10.0,12.0,82,0.00,,,0.00,Wunderground v.1.15,2013-01-15 09:52:00,
2013-01-15 00:58:00,24.6,19.6,29.97,ESE,106,9.0,14.0,81,0.00,,,0.00,Wunderground v.1.15,2013-01-15 09:58:00,
2013-01-15 01:04:00,24.6,19.3,29.97,East,98,10.0,17.0,80,0.00,,,0.00,Wunderground v.1.15,2013-01-15 10:04:00,
2013-01-15 01:10:00,24.5,19.2,29.97,ESE,112,9.0,13.0,80,0.00,,,0.00,Wunderground v.1.15,2013-01-15 10:10:00,
2013-01-15 01:16:00,24.3,19.0,29.97,ESE,108,10.0,13.0,80,0.00,,,0.00,Wunderground v.1.15,2013-01-15 10:16:00,
2013-01-15 01:22:00,24.3,19.0,29.97,East,96,10.0,14.0,80,0.00,,,0.00,Wunderground v.1.15,2013-01-15 10:22:00,
2013-01-15 01:28:00,24.2,19.2,29.98,East,82,10.0,14.0,81,0.00,,,0.00,Wunderground v.1.15,2013-01-15 10:28:00,
2013-01-15 01:33:00,24.1,19.1,29.98,ENE,77,9.0,10.0,81,0.00,,,0.00,Wunderground v.1.15,2013-01-15 10:33:00,
2013-01-15 01:38:00,24.0,19.0,29.98,ESE,117,9.0,11.0,81,0.00,,,0.00,Wunderground v.1.15,2013-01-15 10:38:00,
2013-01-15 01:44:00,24.0,18.7,29.98,ESE,113,9.0,14.0,80,0.00,,,0.00,Wunderground v.1.15,2013-01-15 10:44:00,
2013-01-15 01:50:00,24.1,18.5,29.98,ENE,70,9.0,9.0,79,0.00,,,0.00,Wunderground v.1.15,2013-01-15 10:50:00,
2013-01-15 01:56:00,24.0,18.7,29.98,East,99,10.0,14.0,80,0.00,,,0.00,Wunderground v.1.15,2013-01-15 10:56:00,
2013-01-15 02:01:00,24.0,19.0,29.98,ESE,121,10.0,10.0,81,0.00,,,0.00,Wunderground v.1.15,2013-01-15 11:01:00,
2013-01-15 02:07:00,23.8,19.1,29.98,East,101,8.0,11.0,82,0.00,,,0.00,Wunderground v.1.15,2013-01-15 11:07:00,
2013-01-15 02:13:00,23.8,19.4,29.98,SE,128,8.0,10.0,83,0.00,,,0.00,Wunderground v.1.15,2013-01-15 11:13:00,
2013-01-15 02:18:00,23.7,19.3,29.98,SE,127,8.0,10.0,83,0.00,,,0.00,Wunderground v.1.15,2013-01-15 11:18:00,
2013-01-15 02:24:00,23.8,19.7,29.98,ESE,116,8.0,11.0,84,0.00,,,0.00,Wunderground v.1.15,2013-01-15 11:24:00,
2013-01-15 02:30:00,23.7,19.6,29.98,East,94,7.0,10.0,84,0.00,,,0.00,Wunderground v.1.15,2013-01-15 11:30:00,
2013-01-15 02:36:00,23.7,19.6,29.99,ESE,112,6.0,10.0,84,0.00,,,0.00,Wunderground v.1.15,2013-01-15 11:36:00,
2013-01-15 02:41:00,23.5,19.4,29.99,ESE,112,4.0,10.0,84,0.00,,,0.00,Wunderground v.1.15,2013-01-15 11:41:00,
2013-01-15 02:47:00,23.5,19.4,29.98,SSE,164,4.0,10.0,84,0.00,,,0.00,Wunderground v.1.15,2013-01-15 11:47:00,
2013-01-15 02:53:00,23.5,19.4,29.98,East,99,4.0,10.0,84,0.00,,,0.00,Wunderground v.1.15,2013-01-15 11:53:00,
2013-01-15 02:59:00,23.5,19.1,29.99,ESE,113,4.0,10.0,83,0.00,,,0.00,Wunderground v.1.15,2013-01-15 11:59:00,
2013-01-15 03:05:00,23.7,19.3,29.99,East,98,6.0,10.0,83,0.00,,,0.00,Wunderground v.1.15,2013-01-15 12:05:00,
2013-01-15 03:11:00,23.6,19.2,29.99,ESE,112,5.0,10.0,83,0.00,,,0.00,Wunderground v.1.15,2013-01-15 12:11:00,
2013-01-15 03:17:00,23.6,19.2,29.99,East,85,4.0,10.0,83,0.00,,,0.00,Wunderground v.1.15,2013-01-15 12:17:00,
2013-01-15 03:22:00,23.4,19.0,29.99,SE,137,4.0,10.0,83,0.00,,,0.00,Wunderground v.1.15,2013-01-15 12:22:00,
2013-01-15 03:28:00,23.3,18.9,29.99,ESE,120,3.0,10.0,83,0.00,,,0.00,Wunderground v.1.15,2013-01-15 12:28:00,
2013-01-15 03:34:00,23.2,18.8,30.00,East,101,2.0,10.0,83,0.00,,,0.00,Wunderground v.1.15,2013-01-15 12:34:00,
2013-01-15 03:40:00,23.2,18.8,30.00,East,101,3.0,10.0,83,0.00,,,0.00,Wunderground v.1.15,2013-01-15 12:40:00,
2013-01-15 03:45:00,23.3,19.2,30.00,SE,131,4.0,10.0,84,0.00,,,0.00,Wunderground v.1.15,2013-01-15 12:45:00,
2013-01-15 03:51:00,23.2,19.1,30.00,ESE,110,4.0,10.0,84,0.00,,,0.00,Wunderground v.1.15,2013-01-15 12:51:00,
2013-01-15 03:57:00,23.2,19.1,30.00,SSE,153,3.0,10.0,84,0.00,,,0.00,Wunderground v.1.15,2013-01-15 12:57:00,
2013-01-15 04:03:00,23.1,19.0,30.00,SE,140,3.0,10.0,84,0.00,,,0.00,Wunderground v.1.15,2013-01-15 13:03:00,
2013-01-15 04:08:00,23.2,19.1,30.01,ESE,121,3.0,10.0,84,0.00,,,0.00,Wunderground v.1.15,2013-01-15 13:08:00,
2013-01-15 04:14:00,23.4,19.3,30.01,SE,139,5.0,10.0,84,0.00,,,0.00,Wunderground v.1.15,2013-01-15 13:14:00,
2013-01-15 04:20:00,23.4,19.3,30.01,East,98,6.0,6.0,84,0.00,,,0.00,Wunderground v.1.15,2013-01-15 13:20:00,
2013-01-15 04:26:00,23.3,19.2,30.01,ESE,117,5.0,10.0,84,0.00,,,0.00,Wunderground v.1.15,2013-01-15 13:26:00,
2013-01-15 04:32:00,23.2,19.1,30.01,ESE,113,4.0,10.0,84,0.00,,,0.00,Wunderground v.1.15,2013-01-15 13:32:00,
2013-01-15 04:37:00,23.4,19.6,30.02,ESE,107,3.0,10.0,85,0.00,,,0.00,Wunderground v.1.15,2013-01-15 13:37:00,
2013-01-15 04:43:00,23.4,19.3,30.02,SE,146,3.0,10.0,84,0.00,,,0.00,Wunderground v.1.15,2013-01-15 13:43:00,
2013-01-15 04:49:00,23.5,19.4,30.02,East,86,4.0,10.0,84,0.00,,,0.00,Wunderground v.1.15,2013-01-15 13:49:00,
2013-01-15 04:55:00,23.6,19.5,30.03,ESE,122,5.0,10.0,84,0.00,,,0.00,Wunderground v.1.15,2013-01-15 13:55:00,
2013-01-15 05:00:00,23.7,19.3,30.03,ESE,114,5.0,6.0,83,0.00,,,0.00,Wunderground v.1.15,2013-01-15 14:00:00,
2013-01-15 05:06:00,23.8,19.7,30.03,SE,127,5.0,7.0,84,0.00,,,0.00,Wunderground v.1.15,2013-01-15 14:06:00,
2013-01-15 05:12:00,23.9,19.8,30.03,ESE,110,6.0,6.0,84,0.00,,,0.00,Wunderground v.1.15,2013-01-15 14:12:00,
2013-01-15 05:18:00,23.9,19.8,30.03,East,99,6.0,6.0,84,0.00,,,0.00,Wunderground v.1.15,2013-01-15 14:18:00,
2013-01-15 05:24:00,24.0,19.6,30.03,East,79,4.0,5.0,83,0.00,,,0.00,Wunderground v.1.15,2013-01-15 14:24:00,
2013-01-15 05:30:00,24.0,19.6,30.03,ENE,77,3.0,3.0,83,0.00,,,0.00,Wunderground v.1.15,2013-01-15 14:30:00,
2013-01-15 05:36:00,24.0,19.6,30.03,East,91,3.0,7.0,83,0.00,,,0.00,Wunderground v.1.15,2013-01-15 14:36:00,
2013-01-15 05:41:00,24.1,19.7,30.03,ESE,119,3.0,5.0,83,0.00,,,0.00,Wunderground v.1.15,2013-01-15 14:41:00,
2013-01-15 05:47:00,24.3,19.9,30.03,SE,139,4.0,9.0,83,0.00,,,0.00,Wunderground v.1.15,2013-01-15 14:47:00,
2013-01-15 05:53:00,24.3,19.9,30.03,ESE,123,5.0,5.0,83,0.00,,,0.00,Wunderground v.1.15,2013-01-15 14:53:00,
2013-01-15 05:59:00,24.2,19.8,30.03,SE,132,4.0,6.0,83,0.00,,,0.00,Wunderground v.1.15,2013-01-15 14:59:00,
2013-01-15 06:04:00,24.2,19.8,30.03,SE,129,4.0,9.0,83,0.00,,,0.00,Wunderground v.1.15,2013-01-15 15:04:00,
2013-01-15 06:10:00,24.1,20.0,30.03,ESE,112,4.0,9.0,84,0.00,,,0.00,Wunderground v.1.15,2013-01-15 15:10:00,
2013-01-15 06:16:00,24.0,19.9,30.03,ESE,112,3.0,9.0,84,0.00,,,0.00,Wunderground v.1.15,2013-01-15 15:16:00,
2013-01-15 06:22:00,24.0,19.9,30.03,ESE,117,4.0,9.0,84,0.00,,,0.00,Wunderground v.1.15,2013-01-15 15:22:00,
2013-01-15 06:28:00,24.0,19.6,30.03,East,101,5.0,9.0,83,0.00,,,0.00,Wunderground v.1.15,2013-01-15 15:28:00,
2013-01-15 06:34:00,24.0,19.9,30.04,SE,129,5.0,9.0,84,0.00,,,0.00,Wunderground v.1.15,2013-01-15 15:34:00,
2013-01-15 06:40:00,24.0,19.9,30.04,ESE,106,4.0,4.0,84,0.00,,,0.00,Wunderground v.1.15,2013-01-15 15:40:00,
2013-01-15 06:45:00,24.0,19.9,30.04,ESE,115,4.0,9.0,84,0.00,,,0.00,Wunderground v.1.15,2013-01-15 15:45:00,
2013-01-15 06:51:00,23.9,19.8,30.04,ESE,110,3.0,9.0,84,0.00,,,0.00,Wunderground v.1.15,2013-01-15 15:51:00,
2013-01-15 06:57:00,23.8,19.7,30.04,ESE,111,3.0,9.0,84,0.00,,,0.00,Wunderground v.1.15,2013-01-15 15:57:00,
2013-01-15 07:03:00,23.7,19.9,30.04,East,96,3.0,9.0,85,0.00,,,0.00,Wunderground v.1.15,2013-01-15 16:03:00,
2013-01-15 07:08:00,23.7,19.9,30.05,East,99,4.0,9.0,85,0.00,,,0.00,Wunderground v.1.15,2013-01-15 16:08:00,
2013-01-15 07:14:00,23.8,19.9,30.05,East,89,4.0,9.0,85,0.00,,,0.00,Wunderground v.1.15,2013-01-15 16:14:00,
2013-01-15 07:20:00,23.9,19.8,30.05,ESE,111,4.0,4.0,84,0.00,,,0.00,Wunderground v.1.15,2013-01-15 16:20:00,
2013-01-15 07:26:00,24.0,19.9,30.05,ESE,119,4.0,9.0,84,0.00,,,0.00,Wunderground v.1.15,2013-01-15 16:26:00,
2013-01-15 07:32:00,24.0,19.9,30.05,ESE,109,4.0,9.0,84,0.00,,,0.00,Wunderground v.1.15,2013-01-15 16:32:00,
2013-01-15 07:38:00,24.1,20.0,30.06,ESE,113,5.0,9.0,84,0.00,,,0.00,Wunderground v.1.15,2013-01-15 16:38:00,
2013-01-15 07:44:00,24.2,20.1,30.06,ESE,122,5.0,9.0,84,0.00,,,0.00,Wunderground v.1.15,2013-01-15 16:44:00,
2013-01-15 07:49:00,24.3,19.9,30.06,SE,129,6.0,9.0,83,0.00,,,0.00,Wunderground v.1.15,2013-01-15 16:49:00,
2013-01-15 07:55:00,24.4,20.0,30.07,ESE,116,6.0,9.0,83,0.00,,,0.00,Wunderground v.1.15,2013-01-15 16:55:00,
2013-01-15 08:01:00,24.6,19.9,30.07,ESE,114,7.0,11.0,82,0.00,,,0.00,Wunderground v.1.15,2013-01-15 17:01:00,
2013-01-15 08:07:00,24.6,19.9,30.07,ESE,104,6.0,11.0,82,0.00,,,0.00,Wunderground v.1.15,2013-01-15 17:07:00,
2013-01-15 08:12:00,24.8,20.1,30.07,SE,139,7.0,9.0,82,0.00,,,0.00,Wunderground v.1.15,2013-01-15 17:12:00,
2013-01-15 08:18:00,24.8,20.1,30.07,ESE,110,7.0,9.0,82,0.00,,,0.00,Wunderground v.1.15,2013-01-15 17:18:00,
2013-01-15 08:24:00,24.6,19.9,30.07,East,101,6.0,9.0,82,0.00,,,0.00,Wunderground v.1.15,2013-01-15 17:24:00,
2013-01-15 08:30:00,24.7,20.0,30.08,East,101,7.0,7.0,82,0.00,,,0.00,Wunderground v.1.15,2013-01-15 17:30:00,
2013-01-15 08:36:00,24.6,19.9,30.08,ESE,118,7.0,9.0,82,0.00,,,0.00,Wunderground v.1.15,2013-01-15 17:36:00,
2013-01-15 08:42:00,24.3,19.6,30.09,East,82,4.0,9.0,82,0.00,,,0.00,Wunderground v.1.15,2013-01-15 17:42:00,
2013-01-15 08:48:00,24.2,19.8,30.09,SE,129,3.0,9.0,83,0.00,,,0.00,Wunderground v.1.15,2013-01-15 17:48:00,
2013-01-15 08:53:00,24.5,19.8,30.09,East,84,5.0,9.0,82,0.00,,,0.00,Wunderground v.1.15,2013-01-15 17:53:00,
2013-01-15 08:58:00,24.5,19.8,30.08,ESE,120,7.0,11.0,82,0.00,,,0.00,Wunderground v.1.15,2013-01-15 17:58:00,
2013-01-15 09:04:00,24.7,20.0,30.08,SE,128,8.0,10.0,82,0.00,,,0.00,Wunderground v.1.15,2013-01-15 18:04:00,
2013-01-15 09:10:00,24.7,20.0,30.08,ESE,109,9.0,11.0,82,0.00,,,0.00,Wunderground v.1.15,2013-01-15 18:10:00,
2013-01-15 09:15:00,24.8,20.1,30.09,SE,145,10.0,12.0,82,0.00,,,0.00,Wunderground v.1.15,2013-01-15 18:15:00,
2013-01-15 09:21:00,24.8,20.1,30.09,ESE,123,10.0,10.0,82,0.00,,,0.00,Wunderground v.1.15,2013-01-15 18:21:00,
2013-01-15 09:27:00,24.6,19.3,30.09,SE,134,8.0,10.0,80,0.00,,,0.00,Wunderground v.1.15,2013-01-15 18:27:00,
2013-01-15 09:33:00,24.4,19.4,30.09,SE,135,7.0,9.0,81,0.00,,,0.00,Wunderground v.1.15,2013-01-15 18:33:00,
2013-01-15 09:39:00,24.2,19.5,30.09,SE,124,6.0,9.0,82,0.00,,,0.00,Wunderground v.1.15,2013-01-15 18:39:00,
2013-01-15 09:44:00,24.1,19.7,30.09,ESE,121,6.0,9.0,83,0.00,,,0.00,Wunderground v.1.15,2013-01-15 18:44:00,
2013-01-15 09:50:00,24.0,19.3,30.09,SE,129,6.0,9.0,82,0.00,,,0.00,Wunderground v.1.15,2013-01-15 18:50:00,
2013-01-15 09:56:00,24.1,19.7,30.09,SE,136,7.0,9.0,83,0.00,,,0.00,Wunderground v.1.15,2013-01-15 18:56:00,
2013-01-15 10:02:00,24.0,19.3,30.10,SSE,155,7.0,10.0,82,0.00,,,0.00,Wunderground v.1.15,2013-01-15 19:02:00,
2013-01-15 10:07:00,24.0,19.3,30.10,SSE,148,7.0,10.0,82,0.00,,,0.00,Wunderground v.1.15,2013-01-15 19:07:00,
2013-01-15 10:13:00,23.9,18.9,30.10,SE,136,8.0,9.0,81,0.00,,,0.00,Wunderground v.1.15,2013-01-15 19:13:00,
2013-01-15 10:19:00,23.9,18.9,30.10,SSE,154,7.0,9.0,81,0.00,,,0.00,Wunderground v.1.15,2013-01-15 19:19:00,
2013-01-15 10:25:00,23.8,18.8,30.10,SE,132,7.0,9.0,81,0.00,,,0.00,Wunderground v.1.15,2013-01-15 19:25:00,
2013-01-15 10:31:00,23.7,18.7,30.11,SE,141,7.0,9.0,81,0.00,,,0.00,Wunderground v.1.15,2013-01-15 19:31:00,
2013-01-15 10:37:00,24.0,18.7,30.11,SSE,147,6.0,9.0,80,0.00,,,0.00,Wunderground v.1.15,2013-01-15 19:37:00,
2013-01-15 10:43:00,24.0,18.4,30.11,SE,134,6.0,9.0,79,0.00,,,0.00,Wunderground v.1.15,2013-01-15 19:43:00,
2013-01-15 10:48:00,23.8,18.5,30.11,SE,129,6.0,9.0,80,0.00,,,0.00,Wunderground v.1.15,2013-01-15 19:48:00,
2013-01-15 10:54:00,23.9,18.3,30.11,SE,131,5.0,9.0,79,0.00,,,0.00,Wunderground v.1.15,2013-01-15 19:54:00,
2013-01-15 11:00:00,24.0,18.4,30.11,SSE,149,5.0,9.0,79,0.00,,,0.00,Wunderground v.1.15,2013-01-15 20:00:00,
2013-01-15 11:06:00,24.0,18.4,30.12,SSE,152,5.0,9.0,79,0.00,,,0.00,Wunderground v.1.15,2013-01-15 20:06:00,
2013-01-15 11:12:00,24.0,18.1,30.12,SE,141,5.0,9.0,78,0.00,,,0.00,Wunderground v.1.15,2013-01-15 20:12:00,
2013-01-15 11:18:00,24.1,17.9,30.12,SSE,148,5.0,9.0,77,0.00,,,0.00,Wunderground v.1.15,2013-01-15 20:18:00,
2013-01-15 11:24:00,24.1,18.2,30.13,SE,146,5.0,9.0,78,0.00,,,0.00,Wunderground v.1.15,2013-01-15 20:24:00,
2013-01-15 11:29:00,24.2,18.3,30.13,SE,141,5.0,5.0,78,0.00,,,0.00,Wunderground v.1.15,2013-01-15 20:29:00,
2013-01-15 11:35:00,24.3,18.7,30.13,SSE,162,5.0,9.0,79,0.00,,,0.00,Wunderground v.1.15,2013-01-15 20:35:00,
2013-01-15 11:41:00,24.4,18.8,30.13,SSE,158,5.0,9.0,79,0.00,,,0.00,Wunderground v.1.15,2013-01-15 20:41:00,
2013-01-15 11:46:00,24.5,18.9,30.13,SE,145,6.0,9.0,79,0.00,,,0.00,Wunderground v.1.15,2013-01-15 20:46:00,
2013-01-15 11:52:00,24.4,18.8,30.13,SE,130,4.0,9.0,79,0.00,,,0.00,Wunderground v.1.15,2013-01-15 20:52:00,
2013-01-15 11:58:00,24.3,18.4,30.13,ESE,110,3.0,9.0,78,0.00,,,0.00,Wunderground v.1.15,2013-01-15 20:58:00,
2013-01-15 12:03:00,24.2,18.3,30.13,SE,127,1.0,9.0,78,0.00,,,0.00,Wunderground v.1.15,2013-01-15 21:03:00,
2013-01-15 12:09:00,24.3,18.4,30.13,SSE,149,2.0,9.0,78,0.00,,,0.00,Wunderground v.1.15,2013-01-15 21:09:00,
2013-01-15 12:14:00,24.4,18.5,30.13,SE,129,2.0,9.0,78,0.00,,,0.00,Wunderground v.1.15,2013-01-15 21:14:00,
2013-01-15 12:20:00,24.4,18.2,30.13,SE,129,2.0,9.0,77,0.00,,,0.00,Wunderground v.1.15,2013-01-15 21:20:00,
2013-01-15 12:25:00,24.5,17.7,30.13,SE,134,2.0,9.0,75,0.00,,,0.00,Wunderground v.1.15,2013-01-15 21:25:00,
2013-01-15 12:31:00,24.5,17.7,30.13,SE,124,2.0,9.0,75,0.00,,,0.00,Wunderground v.1.15,2013-01-15 21:31:00,
2013-01-15 12:37:00,24.4,17.6,30.12,SSE,155,2.0,9.0,75,0.00,,,0.00,Wunderground v.1.15,2013-01-15 21:37:00,
2013-01-15 12:43:00,24.6,17.8,30.12,SSE,165,4.0,9.0,75,0.00,,,0.00,Wunderground v.1.15,2013-01-15 21:43:00,
2013-01-15 12:48:00,24.8,17.7,30.13,SE,146,4.0,9.0,74,0.00,,,0.00,Wunderground v.1.15,2013-01-15 21:48:00,
2013-01-15 12:54:00,25.0,16.9,30.13,SE,145,4.0,9.0,71,0.00,,,0.00,Wunderground v.1.15,2013-01-15 21:54:00,
2013-01-15 13:00:00,25.5,16.1,30.13,SSE,164,4.0,9.0,67,0.00,,,0.00,Wunderground v.1.15,2013-01-15 22:00:00,
2013-01-15 13:06:00,25.9,15.0,30.13,SE,133,4.0,9.0,63,0.00,,,0.00,Wunderground v.1.15,2013-01-15 22:06:00,
2013-01-15 13:11:00,26.2,14.6,30.12,ESE,118,4.0,9.0,61,0.00,,,0.00,Wunderground v.1.15,2013-01-15 22:11:00,
2013-01-15 13:17:00,26.4,13.6,30.13,East,100,3.0,9.0,58,0.00,,,0.00,Wunderground v.1.15,2013-01-15 22:17:00,
2013-01-15 13:23:00,26.6,14.2,30.12,East,98,2.0,9.0,59,0.00,,,0.00,Wunderground v.1.15,2013-01-15 22:23:00,
2013-01-15 13:29:00,26.4,14.8,30.12,East,95,1.0,9.0,61,0.00,,,0.00,Wunderground v.1.15,2013-01-15 22:29:00,
2013-01-15 13:34:00,26.3,14.7,30.12,East,95,1.0,9.0,61,0.00,,,0.00,Wunderground v.1.15,2013-01-15 22:34:00,
2013-01-15 13:40:00,26.5,13.3,30.11,ESE,118,1.0,9.0,57,0.00,,,0.00,Wunderground v.1.15,2013-01-15 22:40:00,
2013-01-15 13:46:00,27.0,11.3,30.11,SE,134,2.0,9.0,51,0.00,,,0.00,Wunderground v.1.15,2013-01-15 22:46:00,
2013-01-15 13:52:00,27.8,8.7,30.11,SE,138,2.0,9.0,44,0.00,,,0.00,Wunderground v.1.15,2013-01-15 22:52:00,
2013-01-15 13:57:00,28.5,10.3,30.11,SE,129,2.0,9.0,46,0.00,,,0.00,Wunderground v.1.15,2013-01-15 22:57:00,
2013-01-15 14:03:00,29.0,9.8,30.11,SE,127,2.0,9.0,44,0.00,,,0.00,Wunderground v.1.15,2013-01-15 23:03:00,
2013-01-15 14:09:00,29.4,10.1,30.11,SE,135,3.0,9.0,44,0.00,,,0.00,Wunderground v.1.15,2013-01-15 23:09:00,
2013-01-15 14:15:00,29.8,8.4,30.11,ESE,121,4.0,9.0,40,0.00,,,0.00,Wunderground v.1.15,2013-01-15 23:15:00,
2013-01-15 14:20:00,29.6,8.7,30.12,ESE,120,4.0,4.0,41,0.00,,,0.00,Wunderground v.1.15,2013-01-15 23:20:00,
2013-01-15 14:26:00,29.3,8.5,30.12,SE,132,4.0,9.0,41,0.00,,,0.00,Wunderground v.1.15,2013-01-15 23:26:00,
2013-01-15 14:32:00,28.8,9.1,30.12,SE,139,3.0,9.0,43,0.00,,,0.00,Wunderground v.1.15,2013-01-15 23:32:00,
2013-01-15 14:37:00,28.6,7.8,30.12,SSE,153,3.0,9.0,41,0.00,,,0.00,Wunderground v.1.15,2013-01-15 23:37:00,
2013-01-15 14:43:00,28.5,7.2,30.12,SSE,156,4.0,9.0,40,0.00,,,0.00,Wunderground v.1.15,2013-01-15 23:43:00,
2013-01-15 14:49:00,28.5,7.2,30.12,SSE,148,4.0,9.0,40,0.00,,,0.00,Wunderground v.1.15,2013-01-15 23:49:00,
2013-01-15 14:55:00,28.5,7.2,30.12,SE,141,5.0,9.0,40,0.00,,,0.00,Wunderground v.1.15,2013-01-15 23:55:00,
2013-01-15 15:00:00,28.6,6.2,30.12,SSE,163,5.0,9.0,38,0.00,,,0.00,Wunderground v.1.15,2013-01-16 00:00:00,
2013-01-15 15:06:00,28.6,5.0,30.12,SE,143,6.0,9.0,36,0.00,,,0.00,Wunderground v.1.15,2013-01-16 00:06:00,
2013-01-15 15:12:00,28.7,3.8,30.12,South,175,6.0,9.0,34,0.00,,,0.00,Wunderground v.1.15,2013-01-16 00:12:00,
2013-01-15 15:18:00,28.8,3.3,30.12,SE,146,7.0,9.0,33,0.00,,,0.00,Wunderground v.1.15,2013-01-16 00:18:00,
2013-01-15 15:23:00,28.8,3.9,30.13,SE,145,6.0,9.0,34,0.00,,,0.00,Wunderground v.1.15,2013-01-16 00:23:00,
2013-01-15 15:29:00,28.6,4.4,30.13,SSE,160,6.0,9.0,35,0.00,,,0.00,Wunderground v.1.15,2013-01-16 00:29:00,
2013-01-15 15:35:00,28.3,5.3,30.13,SSE,155,6.0,9.0,37,0.00,,,0.00,Wunderground v.1.15,2013-01-16 00:35:00,
2013-01-15 15:41:00,28.1,5.7,30.13,South,173,7.0,9.0,38,0.00,,,0.00,Wunderground v.1.15,2013-01-16 00:41:00,
2013-01-15 15:47:00,28.0,5.6,30.13,SE,134,7.0,9.0,38,0.00,,,0.00,Wunderground v.1.15,2013-01-16 00:47:00,
2013-01-15 15:53:00,27.9,5.0,30.13,SSE,162,5.0,9.0,37,0.00,,,0.00,Wunderground v.1.15,2013-01-16 00:53:00,
2013-01-15 15:59:00,27.9,5.0,30.12,SE,135,5.0,9.0,37,0.00,,,0.00,Wunderground v.1.15,2013-01-16 00:59:00,
2013-01-15 16:04:00,28.0,5.0,30.12,ENE,68,4.0,9.0,37,0.00,,,0.00,Wunderground v.1.15,2013-01-16 01:04:00,
2013-01-15 16:10:00,27.6,6.9,30.12,East,98,3.0,9.0,41,0.00,,,0.00,Wunderground v.1.15,2013-01-16 01:10:00,
2013-01-15 16:16:00,27.3,8.2,30.13,NE,47,3.0,9.0,44,0.00,,,0.00,Wunderground v.1.15,2013-01-16 01:16:00,
2013-01-15 16:22:00,26.6,16.4,30.13,NE,47,4.0,9.0,65,0.00,,,0.00,Wunderground v.1.15,2013-01-16 01:22:00,
2013-01-15 16:27:00,26.3,17.5,30.13,ENE,75,4.0,9.0,69,0.00,,,0.00,Wunderground v.1.15,2013-01-16 01:27:00,
2013-01-15 16:33:00,26.2,17.7,30.13,East,79,2.0,9.0,70,0.00,,,0.00,Wunderground v.1.15,2013-01-16 01:33:00,
2013-01-15 16:39:00,25.8,17.7,30.13,East,79,1.0,9.0,71,0.00,,,0.00,Wunderground v.1.15,2013-01-16 01:39:00,
2013-01-15 16:45:00,25.7,17.6,30.13,East,82,1.0,9.0,71,0.00,,,0.00,Wunderground v.1.15,2013-01-16 01:45:00,
2013-01-15 16:51:00,25.7,17.3,30.12,South,174,2.0,9.0,70,0.00,,,0.00,Wunderground v.1.15,2013-01-16 01:51:00,
2013-01-15 16:57:00,25.9,14.3,30.13,SE,146,3.0,9.0,61,0.00,,,0.00,Wunderground v.1.15,2013-01-16 01:57:00,
2013-01-15 17:02:00,26.2,13.0,30.13,SSE,152,4.0,9.0,57,0.00,,,0.00,Wunderground v.1.15,2013-01-16 02:02:00,
2013-01-15 17:08:00,26.4,12.8,30.13,SSE,165,3.0,9.0,56,0.00,,,0.00,Wunderground v.1.15,2013-01-16 02:08:00,
2013-01-15 17:14:00,26.5,13.7,30.13,SSE,163,4.0,9.0,58,0.00,,,0.00,Wunderground v.1.15,2013-01-16 02:14:00,
2013-01-15 17:19:00,26.5,14.1,30.13,SE,139,4.0,9.0,59,0.00,,,0.00,Wunderground v.1.15,2013-01-16 02:19:00,
2013-01-15 17:25:00,26.5,14.5,30.13,East,88,2.0,9.0,60,0.00,,,0.00,Wunderground v.1.15,2013-01-16 02:25:00,
2013-01-15 17:31:00,26.2,14.6,30.13,East,100,1.0,9.0,61,0.00,,,0.00,Wunderground v.1.15,2013-01-16 02:31:00,
2013-01-15 17:37:00,25.9,14.7,30.13,ESE,118,3.0,9.0,62,0.00,,,0.00,Wunderground v.1.15,2013-01-16 02:37:00,
2013-01-15 17:42:00,25.7,14.8,30.13,SE,129,3.0,9.0,63,0.00,,,0.00,Wunderground v.1.15,2013-01-16 02:42:00,
2013-01-15 17:48:00,25.7,15.6,30.13,ESE,117,2.0,9.0,65,0.00,,,0.00,Wunderground v.1.15,2013-01-16 02:48:00,
2013-01-15 17:54:00,25.6,15.8,30.14,ENE,76,2.0,9.0,66,0.00,,,0.00,Wunderground v.1.15,2013-01-16 02:54:00,
2013-01-15 17:59:00,25.6,17.2,30.14,ESE,116,3.0,9.0,70,0.00,,,0.00,Wunderground v.1.15,2013-01-16 02:59:00,
2013-01-15 18:05:00,25.5,17.1,30.14,ESE,122,4.0,9.0,70,0.00,,,0.00,Wunderground v.1.15,2013-01-16 03:05:00,
2013-01-15 18:11:00,25.3,17.2,30.13,ESE,104,3.0,9.0,71,0.00,,,0.00,Wunderground v.1.15,2013-01-16 03:11:00,
2013-01-15 18:17:00,25.1,18.0,30.13,ESE,103,1.0,9.0,74,0.00,,,0.00,Wunderground v.1.15,2013-01-16 03:17:00,
2013-01-15 18:23:00,25.1,18.6,30.13,ESE,120,2.0,9.0,76,0.00,,,0.00,Wunderground v.1.15,2013-01-16 03:23:00,
2013-01-15 18:29:00,25.0,19.1,30.13,SSE,154,3.0,9.0,78,0.00,,,0.00,Wunderground v.1.15,2013-01-16 03:29:00,
2013-01-15 18:35:00,25.0,19.7,30.13,SSE,164,5.0,9.0,80,0.00,,,0.00,Wunderground v.1.15,2013-01-16 03:35:00,
2013-01-15 18:41:00,25.0,20.0,30.13,SSE,168,6.0,9.0,81,0.00,,,0.00,Wunderground v.1.15,2013-01-16 03:41:00,
2013-01-15 18:46:00,25.2,20.2,30.13,SSE,150,6.0,9.0,81,0.00,,,0.00,Wunderground v.1.15,2013-01-16 03:46:00,
2013-01-15 18:52:00,25.3,20.0,30.13,SSE,167,6.0,9.0,80,0.00,,,0.00,Wunderground v.1.15,2013-01-16 03:52:00,
2013-01-15 18:58:00,25.3,19.7,30.14,SSE,160,6.0,9.0,79,0.00,,,0.00,Wunderground v.1.15,2013-01-16 03:58:00,
2013-01-15 19:04:00,25.1,19.2,30.13,SSE,165,6.0,9.0,78,0.00,,,0.00,Wunderground v.1.15,2013-01-16 04:04:00,
2013-01-15 19:09:00,25.1,19.5,30.13,SSE,156,6.0,9.0,79,0.00,,,0.00,Wunderground v.1.15,2013-01-16 04:09:00,
2013-01-15 19:14:00,25.1,19.5,30.13,SSE,164,5.0,9.0,79,0.00,,,0.00,Wunderground v.1.15,2013-01-16 04:14:00,
2013-01-15 19:20:00,25.1,19.8,30.13,South,184,5.0,5.0,80,0.00,,,0.00,Wunderground v.1.15,2013-01-16 04:20:00,
2013-01-15 19:26:00,25.1,19.8,30.13,SSE,158,6.0,9.0,80,0.00,,,0.00,Wunderground v.1.15,2013-01-16 04:26:00,
2013-01-15 19:31:00,25.1,19.8,30.13,South,170,7.0,9.0,80,0.00,,,0.00,Wunderground v.1.15,2013-01-16 04:31:00,
2013-01-15 19:37:00,25.0,20.0,30.13,SSE,165,7.0,9.0,81,0.00,,,0.00,Wunderground v.1.15,2013-01-16 04:37:00,
2013-01-15 19:43:00,24.9,20.2,30.14,ESE,103,6.0,9.0,82,0.00,,,0.00,Wunderground v.1.15,2013-01-16 04:43:00,
2013-01-15 19:49:00,23.7,19.0,30.15,East,92,4.0,9.0,82,0.00,,,0.00,Wunderground v.1.15,2013-01-16 04:49:00,
2013-01-15 19:54:00,23.7,19.0,30.14,ESE,123,5.0,9.0,82,0.00,,,0.00,Wunderground v.1.15,2013-01-16 04:54:00,
2013-01-15 20:00:00,23.7,19.3,30.14,SSE,158,4.0,4.0,83,0.00,,,0.00,Wunderground v.1.15,2013-01-16 05:00:00,
2013-01-15 20:03:00,23.8,19.4,30.14,SSE,149,3.0,9.0,83,0.00,,,0.00,Wunderground v.1.15,2013-01-16 05:03:00,
2013-01-15 20:08:00,24.0,19.6,30.14,SE,132,3.0,9.0,83,0.00,,,0.00,Wunderground v.1.15,2013-01-16 05:08:00,
2013-01-15 20:12:00,24.0,19.6,30.14,ESE,121,3.0,9.0,83,0.00,,,0.00,Wunderground v.1.15,2013-01-16 05:12:00,
2013-01-15 20:13:00,24.0,19.6,30.14,ESE,121,2.0,9.0,83,0.00,,,0.00,Wunderground v.1.15,2013-01-16 05:13:00,
2013-01-15 20:19:00,23.7,19.3,30.14,ESE,120,1.0,9.0,83,0.00,,,0.00,Wunderground v.1.15,2013-01-16 05:19:00,
2013-01-15 20:24:00,23.5,19.1,30.14,ESE,119,1.0,9.0,83,0.00,,,0.00,Wunderground v.1.15,2013-01-16 05:24:00,
2013-01-15 20:30:00,23.7,19.6,30.14,East,89,0.0,9.0,84,0.00,,,0.00,Wunderground v.1.15,2013-01-16 05:30:00,
2013-01-15 20:36:00,23.8,19.7,30.14,ESE,106,1.0,9.0,84,0.00,,,0.00,Wunderground v.1.15,2013-01-16 05:36:00,
2013-01-15 20:42:00,24.3,20.2,30.14,ESE,105,1.0,9.0,84,0.00,,,0.00,Wunderground v.1.15,2013-01-16 05:42:00,
2013-01-15 20:47:00,24.4,20.0,30.14,ESE,106,1.0,9.0,83,0.00,,,0.00,Wunderground v.1.15,2013-01-16 05:47:00,
2013-01-15 20:53:00,24.6,20.2,30.13,SSE,158,2.0,9.0,83,0.00,,,0.00,Wunderground v.1.15,2013-01-16 05:53:00,
2013-01-15 20:59:00,24.3,19.9,30.13,SSE,158,2.0,9.0,83,0.00,,,0.00,Wunderground v.1.15,2013-01-16 05:59:00,
2013-01-15 21:04:00,24.6,20.2,30.13,SSE,158,1.0,9.0,83,0.00,,,0.00,Wunderground v.1.15,2013-01-16 06:04:00,
2013-01-15 21:10:00,24.2,20.1,30.13,SW,229,2.0,9.0,84,0.00,,,0.00,Wunderground v.1.15,2013-01-16 06:10:00,
2013-01-15 21:16:00,24.9,20.5,30.12,WSW,237,4.0,9.0,83,0.00,,,0.00,Wunderground v.1.15,2013-01-16 06:16:00,
2013-01-15 21:22:00,24.7,20.0,30.12,SW,228,4.0,9.0,82,0.00,,,0.00,Wunderground v.1.15,2013-01-16 06:22:00,
2013-01-15 21:28:00,24.6,20.2,30.12,SW,228,4.0,9.0,83,0.00,,,0.00,Wunderground v.1.15,2013-01-16 06:28:00,
2013-01-15 21:34:00,24.6,20.2,30.12,SW,222,3.0,9.0,83,0.00,,,0.00,Wunderground v.1.15,2013-01-16 06:34:00,
2013-01-15 21:40:00,24.7,20.3,30.12,SW,228,2.0,9.0,83,0.00,,,0.00,Wunderground v.1.15,2013-01-16 06:40:00,
2013-01-15 21:46:00,24.8,20.1,30.12,SW,231,3.0,9.0,82,0.00,,,0.00,Wunderground v.1.15,2013-01-16 06:46:00,
2013-01-15 21:52:00,24.7,20.3,30.12,SW,229,3.0,9.0,83,0.00,,,0.00,Wunderground v.1.15,2013-01-16 06:52:00,
2013-01-15 21:57:00,24.8,20.1,30.12,SW,229,2.0,9.0,82,0.00,,,0.00,Wunderground v.1.15,2013-01-16 06:57:00,
2013-01-15 22:03:00,24.8,20.1,30.12,SW,229,2.0,9.0,82,0.00,,,0.00,Wunderground v.1.15,2013-01-16 07:03:00,
2013-01-15 22:09:00,24.8,19.8,30.11,SW,231,2.0,9.0,81,0.00,,,0.00,Wunderground v.1.15,2013-01-16 07:09:00,
2013-01-15 22:15:00,25.2,19.9,30.11,WSW,253,2.0,9.0,80,0.00,,,0.00,Wunderground v.1.15,2013-01-16 07:15:00,
2013-01-15 22:20:00,25.6,20.0,30.11,WSW,251,3.0,9.0,79,0.00,,,0.00,Wunderground v.1.15,2013-01-16 07:20:00,
2013-01-15 22:26:00,26.1,19.9,30.11,WSW,246,4.0,9.0,77,0.00,,,0.00,Wunderground v.1.15,2013-01-16 07:26:00,
2013-01-15 22:32:00,26.2,20.0,30.11,ENE,61,4.0,9.0,77,0.00,,,0.00,Wunderground v.1.15,2013-01-16 07:32:00,
2013-01-15 22:38:00,25.6,19.7,30.11,ESE,118,1.0,9.0,78,0.00,,,0.00,Wunderground v.1.15,2013-01-16 07:38:00,
2013-01-15 22:44:00,25.7,19.8,30.11,SW,217,2.0,9.0,78,0.00,,,0.00,Wunderground v.1.15,2013-01-16 07:44:00,
2013-01-15 22:49:00,26.3,19.8,30.11,SSW,212,3.0,9.0,76,0.00,,,0.00,Wunderground v.1.15,2013-01-16 07:49:00,
2013-01-15 22:55:00,26.3,19.8,30.11,SSE,153,2.0,9.0,76,0.00,,,0.00,Wunderground v.1.15,2013-01-16 07:55:00,
2013-01-15 23:01:00,26.7,19.8,30.11,SSE,153,1.0,9.0,75,0.00,,,0.00,Wunderground v.1.15,2013-01-16 08:01:00,
2013-01-15 23:06:00,27.2,20.0,30.10,SSE,153,1.0,9.0,74,0.00,,,0.00,Wunderground v.1.15,2013-01-16 08:06:00,
2013-01-15 23:12:00,27.8,20.6,30.10,SE,134,1.0,9.0,74,0.00,,,0.00,Wunderground v.1.15,2013-01-16 08:12:00,
2013-01-15 23:18:00,27.9,20.7,30.10,ENE,67,1.0,9.0,74,0.00,,,0.00,Wunderground v.1.15,2013-01-16 08:18:00,
2013-01-15 23:24:00,28.0,20.5,30.10,ENE,61,1.0,9.0,73,0.00,,,0.00,Wunderground v.1.15,2013-01-16 08:24:00,
2013-01-15 23:30:00,27.4,20.2,30.10,ESE,113,0.0,9.0,74,0.00,,,0.00,Wunderground v.1.15,2013-01-16 08:30:00,
2013-01-15 23:35:00,27.3,20.1,30.10,ESE,113,0.0,9.0,74,0.00,,,0.00,Wunderground v.1.15,2013-01-16 08:35:00,
2013-01-15 23:41:00,27.3,20.1,30.10,SSE,166,1.0,9.0,74,0.00,,,0.00,Wunderground v.1.15,2013-01-16 08:41:00,
2013-01-15 23:47:00,27.6,19.8,30.10,SW,235,2.0,9.0,72,0.00,,,0.00,Wunderground v.1.15,2013-01-16 08:47:00,
2013-01-15 23:53:00,27.7,20.2,30.10,SW,222,3.0,9.0,73,0.00,,,0.00,Wunderground v.1.15,2013-01-16 08:53:00,
2013-01-15 23:59:00,28.2,20.3,30.09,SW,214,3.0,9.0,72,0.00,,,0.00,Wunderground v.1.15,2013-01-16 08:59:00,